Location: Wiesbaden
(50.0830°N, 8.2500°E)
Time: 08:36:24
(UTC+01:00)

ISS - Pass Details

Date: 11 December 2018
Orbit: 401 x 408 km, 51.6° (Epoch: 12 December)

Event Time Altitude Azimuth Distance (km) Brightness Sun altitude
Rises 18:11:28 0° 286° (WNW) 2,320 1.0 -16.1°
Reaches altitude 10° 18:13:44 10° 273° (W) 1,457 0.1 -16.4°
Maximum altitude 18:16:31 26° 215° (SW) 831 -1.7 -16.9°
Drops below altitude 10° 18:19:17 10° 156° (SSE) 1,448 -1.1 -17.3°
Enters shadow 18:19:44 - 152° (SSE) 1,606 -0.9 -17.4°
